Showing default

SKYKRAFT-1C, 55061

Orbit data source: Space-Track

SKYKRAFT-1C, 55061 is a payload satellite owned by SkyKraft (AU) in SSO that was launched on Tue, 03 Jan 2023 UTC via an FALCON 9 launch vehicle from the Air Force Eastern Test Range (AFETR). Payload-class satellites include a variety of spacecraft equipped with specific instruments for various scientific and technological missions. These include communications satellites like Starlink; space stations such as the ISS; scientific satellites like the Hubble; Earth observation satellites from companies like Planet Labs, Umbra, and HawkEye 360; GPS; miniature CubeSats for education and research; and military/defense satellites.

Loading next visibility...
Identifier
55061, 2023-001BE
Orbit
SSO
Country
Flag of AUAU / AUS
Related business
Manufacturer
SkyKraft
Mission
Operational Commercial Communications
Bus & Motor
SKYKRAFT, Unknown motor
Mass
~50 kg wet, ~50 kg dry
Launch date (UTC)
2023-01-03 (3 years ago)
Launch vehicle
FALCON 9
Launch site
Air Force Eastern Test Range (AFETR)
Object type
Payload
Rocket body
Debris
Shape & HBR
Box, 0.3 m
Radar Cross Section
0.065 m², Medium (>0.1 m² and < 1m²)

Expand to show TLE details & history
Last TLE update: 18 hours ago

TLE from 18 hours ago
0 SKYKRAFT-1C
1 55061U 23001BE  25286.59820516  .00005334  00000-0  23045-3 0  9994
2 55061  97.3583 340.4972 0009480 299.9130  60.1165 15.22869118153929
Epoch: 2025-10-13T14:21Z
TLE epoch observation values (Epoch: 2025-10-13T14:21:24.925Z)
Latitude
-0.00001°
Longitude
102.74466°
Altitude
497.044 km
Speed
7.618 km/s
True Right ascension
22h 41m 59s
True Declination
0° 00' 00"
Sunlit
Object was in full shadow at epoch
Visualization orbit readout
Latitude
Unknown
Longitude
Unknown
Altitude
Unknown
Speed
Unknown
Apparent Right ascension
Unknown
Apparent Declination
Unknown
Sunlit
N/A
Visualization observer readout
Local Sidereal Time
02:30:11
Azimuth
Unknown
Elevation
Unknown
Doppler factor
Unknown
Orbital elements
Apogee altitude
500.666 km
Perigee altitude
487.637 km
Semi-major axis
6,872.288 km
Eccentricity
0.00095
Inclination
97.3583°
RAAN
340.4972°
Arg. of periapsis
299.913°
True anomaly
60.21074°
Mean anomaly
60.1165°
Eccentric anomaly
60.16362°
Mean motion
3.8097 °/min
Orbital period
94.5 mins
BSTAR
0.00023045
Loading maneuver chart data...
Computing Atmospheric mass density...
Loading historical data...
Loading historical data...
Loading historical data...
Loading historical data...
Loading historical data...
Loading historical data...
Loading historical data...

Documentation

Showing up to 5 results
|